Regional Weather Roundup
Issued by NWS

Home | Current Version | Previous Version | Text Only | Print | Product List | Glossary On
Versions: 1 2 3 4 5 6 7 8 9 10 11 12 13 14 15 16 17 18 19 20 21 22 23 24 25 26 27 28 29 30 31 32 33 34 35 36 37 38 39 40 41 42 43 44 45 46 47 48
000
ASUS43 KMPX 132210
RWRMN
WEATHER ROUNDUP FOR MINNESOTA
NATIONAL WEATHER SERVICE TWIN CITIES/CHANHASSEN MN
500 PM CDT THU AUG 13 2020


NOTE: "FAIR" INDICATES FEW OR NO CLOUDS BELOW 12,000 FEET WITH NO
SIGNIFICANT WEATHER AND/OR OBSTRUCTIONS TO VISIBILITY. N/A MEANS
CURRENT SKY AND/OR WEATHER CONDITIONS ARE NOT AVAILABLE.

MNZ060>063-068>070-132300-
   Twin Cities Metro

CITY           SKY/WX    TMP DP  RH WIND       PRES   REMARKS
TWIN CITIES    PTSUNNY   86  72  62 S16       29.96F HX  92
ST PAUL        PTSUNNY   87  72  60 S14G24    29.96F HX  93
CRYSTAL        PTSUNNY   87  70  56 S10G24    29.94F HX  92
BLAINE         MOSUNNY   88  72  58 S12G20    29.95F HX  94
LAKEVILLE      MOSUNNY   86  66  51 SE8       29.97F
EDEN PRAIRIE   SUNNY     87  72  60 S12       29.94F HX  93
SOUTH ST PAUL  MOSUNNY   87  69  55 S9G16     29.96F HX  91
LAKE ELMO      PTSUNNY   82  72  69 S13       29.98F
$$
MNZ001>005-007-008-013>017-022>024-027-028-132300-
   Northwest Minnesota

CITY           SKY/WX    TMP DP  RH WIND       PRES   REMARKS
BEMIDJI        MOSUNNY   79  72  78 SE14      29.88F
HALLOCK        MOSUNNY   79  72  78 E12       29.80F
ROSEAU         MOSUNNY   79 N/A N/A SE9       29.85F
WARROAD        PTSUNNY   77  72  83 S12       29.87F
THIEF RVR FALL PTSUNNY   81  72  74 E13       29.84F
CROOKSTON      LGT RAIN  81  73  78 E7        29.81R
FOSSTON        MOSUNNY   82  70  65 S15       29.84F
DETROIT LAKES    N/A     86  72  62 S13G21    29.87S HX  92
MOORHEAD       MOSUNNY   91  68  46 S14G24    29.79S HX  95
PARK RAPIDS    CLOUDY    85  71  63 S10       29.88S HX  90
MAHNOMEN       FAIR      86  74  68 S14       29.84S HX  94
$$
MNZ006-009>011-018-025>026-132300-
   North Central Minnesota

CITY           SKY/WX    TMP DP  RH WIND       PRES   REMARKS
BAUDETTE       CLOUDY    78  69  73 S14G24    29.90F
FLAG ISLAND      N/A     75  64  69 SE7       29.86F
INTL FALLS     PTSUNNY   76  66  71 S12G25    29.92S
WASKISH          N/A     73  68  83 SE5       29.91F
BIG FORK       CLOUDY    72  66  83 SE6       30.01R
LONGVILLE      PTSUNNY   81  72  74 SE12G18   29.92S
GRAND RAPIDS   PTSUNNY   77  71  82 S16       29.96F
CRANE LAKE     PTSUNNY   75  66  73 SE7       29.98S
ORR            CLOUDY    73  64  73 S8G16     29.95F
COOK           CLOUDY    73  66  78 SE7       29.98F
WALKER         CLOUDY    77  73  86 SE9       29.90R
$$
MNZ012-019>021-037-132300-
   Northeast Minnesota

CITY           SKY/WX    TMP DP  RH WIND       PRES   REMARKS
DULUTH         MOSUNNY   73  66  78 E12       30.00F
ELY            CLOUDY    73  63  68 S12       30.02R
HIBBING        CLOUDY    72  66  81 SE13      29.98S
EVELETH        CLOUDY    73  67  82 SE8       30.01S
DULUTH HARBOR  MOSUNNY   68  63  83 NE14      29.99S
TWO HARBORS    PTSUNNY   72  57  60 NE6       30.01S
SILVER BAY       N/A     70  57  64 NE6       30.03S
GRAND MARAIS     N/A     69  58  67 E8G17     30.04F
G MARAIS ARPRT MOSUNNY   72  55  56 SE7       30.09S
$$
MNZ029>031-032-039>041-046>048-054>057-064-132300-
   West Central Minnesota

CITY           SKY/WX    TMP DP  RH WIND       PRES   REMARKS
FERGUS FALLS   MOSUNNY   86  75  70 S16G23    29.83S HX  95
WHEATON        SUNNY     88  72  58 S14G24    29.83F HX  94
MORRIS         MOSUNNY   88  72  58 S14G22    29.88R HX  94
ALEXANDRIA     PTSUNNY   84  74  71 S13       29.91  HX  91
ELBOW LAKE     FAIR      86  76  71 S17G24    29.86S HX  95
WADENA         PTSUNNY   86  73  66 S14       29.88S HX  93
GLENWOOD       SUNNY     86  73  66 S20G28    29.91R HX  93
APPLETON       MOSUNNY   90  70  51 S7G20     29.86R HX  95
ORTONVILLE     MOSUNNY   90  73  58 S13       29.85S HX  98
MADISON        SUNNY     90  73  58 S14       29.86S HX  98
WILLMAR        FAIR      88  72  58 S10G17    29.92S HX  94
$$
MNZ033>034-036-042>043-049>051-058-059-132300-
   Central Minnesota

CITY           SKY/WX    TMP DP  RH WIND       PRES   REMARKS
ST CLOUD       MOSUNNY   83  72  69 S16G24    29.92F
SAUK CENTRE    MOCLDY    85  74  68 S17       29.91S HX  93
PAYNESVILLE    MOSUNNY   86  75  69 S14G20    29.92S HX  95
AITKIN         MOSUNNY   81  70  69 S14       29.93S
PINE RIVER     PTSUNNY   81  73  78 SE10      29.95R
BRAINERD       PTSUNNY   86  71  60 S20G25    29.92S HX  91
STAPLES        CLOUDY    82  70  65 S15G22    29.90R
LONG PRAIRIE   FAIR      82  73  74 S18       29.91S
LITTLE FALLS   PTSUNNY   82  72  69 SE12      29.92S
CAMP RIPLEY    FAIR      86  74  68 S14G23    29.92S HX  94
LITCHFIELD     MOSUNNY   88  73  62 SE7       29.92F HX  96
BUFFALO        MOSUNNY   86  72  63 MISG      29.95F HX  91
MAPLE LAKE       N/A     86  76  72 S5        29.94F HX  96
HUTCHINSON     MOSUNNY   87  76  68 S6        29.94F HX  97
$$
MNZ037-044-045-052-053-132300-
   East Central Minnesota

CITY           SKY/WX    TMP DP  RH WIND       PRES   REMARKS
PRINCETON      MOSUNNY   88  73  62 S12       29.94F HX  96
MORA           MOSUNNY   86  73  66 S10       29.96F HX  93
CAMBRIDGE      SUNNY     88  70  55 S12G17    29.94F HX  92
RUSH CITY      SUNNY     84  71  63 S9G16     29.95F
MOOSE LAKE     MOSUNNY   82  72  69 S5        29.95F
HINCKLEY       MOCLDY    86  73  66 S13       29.96S HX  93
CLOQUET        MOSUNNY   73  66  78 E6        29.99S
MCGREGOR       CLOUDY    81  72  74 S9        29.96S
$$
MNZ071>073-080-081-089-090-097-098-132300-
   Southwest Minnesota

CITY           SKY/WX    TMP DP  RH WIND       PRES   REMARKS
MONTEVIDEO     SUNNY     88  70  55 S14G21    29.88R HX  92
GRANITE FALLS  SUNNY     88  75  65 SE15      29.90S HX  97
CANBY          SUNNY     88  70  55 S12G21    29.88S HX  93
MARSHALL       SUNNY     87  70  56 S20G30    29.89F HX  92
REDWOOD FALLS  SUNNY     87  70  56 S14       29.90F HX  92
OLIVIA         SUNNY     86  70  58 S15G21    29.90F HX  90
PIPESTONE        N/A     84  72  65 S20       29.92S
WINDOM         SUNNY     86  70  58 SE10G23   29.94F HX  90
WORTHINGTON    MOSUNNY   85  72  65 S16       29.95F HX  91
JACKSON        SUNNY     86  68  54 S13       29.97F
TRACY          SUNNY     87  69  54 S12G18    29.91F HX  91
SLAYTON        MOSUNNY   84  67  55 S13       29.94F
$$
MNZ065>067-074>077-082>085-091>093-132300-
   South Central Minnesota

CITY           SKY/WX    TMP DP  RH WIND       PRES   REMARKS
MANKATO        MOSUNNY   85  76  74 S13       29.96F HX  94
NEW ULM        SUNNY     86  72  62 CALM      29.94S HX  92
ST JAMES         N/A     86  70  58 S14       29.94F HX  90
FAIRMONT       MOSUNNY   87  72  60 S14       29.97S HX  93
GLENCOE        MOSUNNY   87  73  62 S8G17     29.94F HX  94
FARIBAULT      MOSUNNY   84  73  70 SE12      29.99S HX  91
OWATONNA       MOSUNNY   84  73  70 S9        29.99S HX  91
ALBERT LEA     MOSUNNY   84  72  65 S12       30.00S
$$
MNZ078>079-086>088-094>096-132300-
   Southeast Minnesota

CITY           SKY/WX    TMP DP  RH WIND       PRES   REMARKS
ROCHESTER      PTSUNNY   83  72  69 SE9       30.03S
RED WING       MOSUNNY   84  72  65 SE6       29.97F
STANTON        MOSUNNY   86  72  62 S8        29.97F HX  92
DODGE CENTER   SUNNY     84  70  61 S10       30.02S
WINONA         SUNNY     86  72  62 CALM      30.01S HX  92
AUSTIN         MOSUNNY   82  72  69 S9        30.02S
PRESTON        MOSUNNY   83  70  65 SE10      30.04S
$$
ABBREVIATIONS USED IN REMARKS
   TC - TEMPERATURES IN CELSIUS
  WCI - WIND CHILL INDEX
   HX - HEAT INDEX
  VSB - VISIBILITY
$$



USA.gov is the U.S. government's official web portal to all federal, state and local government web resources and services.